RYR458E EPGD-EDDH

Flight info

Callsign RYR458E
Flight time 1h 0m
Altitude 36000
Route DEXIR T671 AGODU L733 TABOK DCT VIBIS L619 BUMIL/N0351F240 M748 RARUP RARUP3D
Aircraft B738/M-SDE3FGILRWY/SB1

Departure

Time 2026-05-08 06:39
Airport Gdańsk Lech Wałęsa Airport (EPGD)

Arrival

Time 2026-05-08 07:40
Airport Hamburg Helmut Schmidt Airport (EDDH)
Time Latitude Longitude Altitude Speed Heading
2026-05-08 06:06 54.38189 18.46315 457 ft 0 kts 23°
2026-05-08 06:29 54.38185 18.46312 458 ft 2 kts 22°
2026-05-08 06:30 54.38170 18.46298 458 ft 3 kts 51°
2026-05-08 06:30 54.38161 18.46270 458 ft 3 kts 82°
2026-05-08 06:30 54.38161 18.46236 458 ft 3 kts 103°
2026-05-08 06:30 54.38164 18.46215 457 ft 1 kts 111°
2026-05-08 06:31 54.38166 18.46210 456 ft 0 kts 111°
2026-05-08 06:33 54.38165 18.46214 457 ft 2 kts 111°
2026-05-08 06:33 54.38151 18.46274 458 ft 9 kts 112°
2026-05-08 06:33 54.38119 18.46406 456 ft 15 kts 112°
2026-05-08 06:34 54.38077 18.46569 457 ft 8 kts 113°
2026-05-08 06:34 54.38035 18.46614 456 ft 8 kts 191°
2026-05-08 06:34 54.37983 18.46582 458 ft 8 kts 191°
2026-05-08 06:34 54.37932 18.46638 458 ft 11 kts 116°
2026-05-08 06:35 54.37898 18.46776 458 ft 14 kts 113°
2026-05-08 06:35 54.37855 18.46947 458 ft 17 kts 113°
2026-05-08 06:35 54.37806 18.47147 459 ft 19 kts 113°
2026-05-08 06:35 54.37754 18.47355 459 ft 19 kts 113°
2026-05-08 06:36 54.37705 18.47556 459 ft 18 kts 113°
2026-05-08 06:36 54.37657 18.47750 465 ft 17 kts 113°
2026-05-08 06:36 54.37610 18.47937 469 ft 17 kts 113°
2026-05-08 06:36 54.37565 18.48117 473 ft 16 kts 113°
2026-05-08 06:37 54.37522 18.48290 474 ft 15 kts 112°
2026-05-08 06:37 54.37481 18.48457 480 ft 15 kts 113°
2026-05-08 06:37 54.37442 18.48614 482 ft 11 kts 113°
2026-05-08 06:37 54.37394 18.48652 485 ft 8 kts 196°
2026-05-08 06:38 54.37341 18.48617 484 ft 8 kts 202°
2026-05-08 06:38 54.37292 18.48583 488 ft 4 kts 202°
2026-05-08 06:38 54.37285 18.48532 488 ft 7 kts 288°
2026-05-08 06:38 54.37347 18.48283 477 ft 55 kts 293°
2026-05-08 06:39 54.37600 18.47258 460 ft 128 kts 293°
2026-05-08 06:39 54.38016 18.45557 574 ft 171 kts 295°
2026-05-08 06:39 54.38426 18.43739 1485 ft 160 kts 296°
2026-05-08 06:39 54.38879 18.41879 2060 ft 181 kts 299°
2026-05-08 06:40 54.39435 18.39710 2421 ft 215 kts 298°
2026-05-08 06:40 54.40061 18.37224 2782 ft 235 kts 297°
2026-05-08 06:40 54.40706 18.34598 3456 ft 242 kts 297°
2026-05-08 06:40 54.41356 18.31916 4279 ft 244 kts 296°
2026-05-08 06:41 54.42008 18.29211 5174 ft 247 kts 296°
2026-05-08 06:41 54.42671 18.26454 5990 ft 253 kts 296°
2026-05-08 06:41 54.43239 18.23601 6768 ft 261 kts 279°
2026-05-08 06:41 54.42968 18.20541 7550 ft 265 kts 241°
2026-05-08 06:42 54.41963 18.17760 7924 ft 288 kts 242°
2026-05-08 06:42 54.41251 18.14454 8558 ft 299 kts 252°
2026-05-08 06:42 54.40609 18.11076 9551 ft 297 kts 250°
2026-05-08 06:42 54.39936 18.07710 10429 ft 300 kts 250°
2026-05-08 06:43 54.39213 18.04223 10763 ft 322 kts 249°
2026-05-08 06:43 54.38416 18.00482 11083 ft 342 kts 249°
2026-05-08 06:43 54.37577 17.96610 11771 ft 349 kts 248°
2026-05-08 06:43 54.36720 17.92710 12650 ft 351 kts 248°
2026-05-08 06:44 54.35850 17.88782 13494 ft 354 kts 248°
2026-05-08 06:44 54.34964 17.84810 14265 ft 360 kts 248°
2026-05-08 06:44 54.34060 17.80780 15045 ft 363 kts 248°
2026-05-08 06:44 54.33152 17.76740 15929 ft 364 kts 248°
2026-05-08 06:45 54.32237 17.72682 16787 ft 366 kts 248°
2026-05-08 06:45 54.31314 17.68602 17596 ft 370 kts 248°
2026-05-08 06:45 54.30378 17.64471 18357 ft 374 kts 248°
2026-05-08 06:45 54.29430 17.60294 19055 ft 378 kts 248°
2026-05-08 06:46 54.28475 17.56098 19795 ft 379 kts 248°
2026-05-08 06:46 54.27511 17.51871 20461 ft 383 kts 248°
2026-05-08 06:46 54.26536 17.47602 21105 ft 387 kts 248°
2026-05-08 06:46 54.25549 17.43289 21753 ft 391 kts 249°
2026-05-08 06:47 54.24558 17.38965 22566 ft 390 kts 249°
2026-05-08 06:47 54.23565 17.34645 23259 ft 392 kts 249°
2026-05-08 06:47 54.22560 17.30279 23835 ft 397 kts 249°
2026-05-08 06:47 54.21543 17.25873 24332 ft 400 kts 248°
2026-05-08 06:48 54.20516 17.21432 24863 ft 403 kts 248°
2026-05-08 06:48 54.19477 17.16950 25243 ft 411 kts 250°
2026-05-08 06:48 54.18420 17.12394 25599 ft 417 kts 250°
2026-05-08 06:48 54.17349 17.07788 26159 ft 418 kts 250°
2026-05-08 06:49 54.16272 17.03170 26706 ft 419 kts 250°
2026-05-08 06:49 54.15187 16.98528 27173 ft 423 kts 249°
2026-05-08 06:49 54.14093 16.93858 27625 ft 426 kts 249°
2026-05-08 06:49 54.12986 16.89144 28078 ft 429 kts 249°
2026-05-08 06:50 54.11872 16.84409 28520 ft 432 kts 249°
2026-05-08 06:50 54.10747 16.79637 28964 ft 435 kts 249°
2026-05-08 06:50 54.09614 16.74843 29389 ft 438 kts 249°
2026-05-08 06:50 54.08488 16.70090 29898 ft 438 kts 250°
2026-05-08 06:51 54.07350 16.65296 30487 ft 435 kts 250°
2026-05-08 06:51 54.06216 16.60532 31001 ft 433 kts 249°
2026-05-08 06:51 54.05086 16.55793 31455 ft 432 kts 249°
2026-05-08 06:51 54.03952 16.51047 31865 ft 433 kts 249°
2026-05-08 06:52 54.02819 16.46315 32305 ft 432 kts 249°
2026-05-08 06:52 54.01688 16.41600 32827 ft 429 kts 248°
2026-05-08 06:52 54.00562 16.36920 33334 ft 427 kts 248°
2026-05-08 06:52 53.99802 16.33763 33634 ft 426 kts 248°
2026-05-08 06:53 53.98681 16.29117 34154 ft 423 kts 248°
2026-05-08 06:53 53.97568 16.24510 34611 ft 420 kts 248°
2026-05-08 06:53 53.96454 16.19911 34850 ft 423 kts 248°
2026-05-08 06:53 53.95330 16.15281 35114 ft 424 kts 248°
2026-05-08 06:54 53.94178 16.10691 35543 ft 420 kts 244°
2026-05-08 06:54 53.92826 16.06298 35825 ft 421 kts 241°
2026-05-08 06:54 53.91377 16.01959 36073 ft 423 kts 240°
2026-05-08 06:54 53.89903 15.97659 36216 ft 421 kts 240°
2026-05-08 06:55 53.86978 15.89134 36221 ft 422 kts 240°
2026-05-08 06:55 53.84048 15.80494 36230 ft 423 kts 240°
2026-05-08 06:56 53.81125 15.71831 36215 ft 424 kts 240°
2026-05-08 06:56 53.78201 15.63168 36221 ft 424 kts 240°
2026-05-08 06:57 53.75270 15.54514 36218 ft 424 kts 240°
2026-05-08 06:57 53.72337 15.45885 36206 ft 423 kts 240°
2026-05-08 06:58 53.69406 15.37294 36211 ft 422 kts 240°
2026-05-08 06:58 53.66476 15.28735 36208 ft 421 kts 240°
2026-05-08 06:59 53.63548 15.20215 36214 ft 420 kts 240°
2026-05-08 06:59 53.60615 15.11706 36210 ft 419 kts 240°
2026-05-08 07:00 53.57681 15.03225 36212 ft 419 kts 240°
2026-05-08 07:00 53.54742 14.94759 36181 ft 419 kts 240°
2026-05-08 07:01 53.51796 14.86299 36187 ft 419 kts 240°
2026-05-08 07:01 53.48840 14.77844 36188 ft 420 kts 240°
2026-05-08 07:02 53.45874 14.69385 36194 ft 421 kts 240°
2026-05-08 07:02 53.42899 14.60930 36203 ft 421 kts 239°
2026-05-08 07:03 53.39916 14.52482 36211 ft 421 kts 239°
2026-05-08 07:03 53.36945 14.44097 36194 ft 421 kts 239°
2026-05-08 07:04 53.33932 14.35622 36201 ft 421 kts 239°
2026-05-08 07:04 53.30952 14.27268 36200 ft 421 kts 239°
2026-05-08 07:05 53.27929 14.18819 36199 ft 421 kts 239°
2026-05-08 07:05 53.24941 14.10500 36198 ft 420 kts 239°
2026-05-08 07:06 53.21928 14.02138 36199 ft 420 kts 239°
2026-05-08 07:06 53.18910 13.93788 36198 ft 420 kts 239°
2026-05-08 07:07 53.15890 13.85464 36200 ft 419 kts 239°
2026-05-08 07:07 53.12868 13.77160 36191 ft 419 kts 239°
2026-05-08 07:08 53.09845 13.68878 36197 ft 418 kts 239°
2026-05-08 07:08 53.06823 13.60630 36198 ft 417 kts 239°
2026-05-08 07:09 53.03799 13.52399 36190 ft 417 kts 239°
2026-05-08 07:09 53.00774 13.44192 36193 ft 416 kts 239°
2026-05-08 07:10 52.97746 13.36002 36179 ft 416 kts 239°
2026-05-08 07:10 52.96378 13.31793 36167 ft 414 kts 251°
2026-05-08 07:10 52.95800 13.27134 36011 ft 414 kts 268°
2026-05-08 07:11 52.96010 13.22415 35742 ft 408 kts 281°
2026-05-08 07:11 52.96647 13.17852 35351 ft 404 kts 283°
2026-05-08 07:11 52.97336 13.13351 34985 ft 401 kts 284°
2026-05-08 07:11 52.98030 13.08891 34614 ft 398 kts 284°
2026-05-08 07:12 52.98714 13.04459 34247 ft 395 kts 284°
2026-05-08 07:12 52.99381 13.00049 33809 ft 392 kts 284°
2026-05-08 07:12 53.00034 12.95665 33399 ft 389 kts 283°
2026-05-08 07:12 53.00672 12.91322 33035 ft 385 kts 283°
2026-05-08 07:13 53.01299 12.87017 32661 ft 382 kts 283°
2026-05-08 07:13 53.01915 12.82753 32308 ft 378 kts 283°
2026-05-08 07:13 53.02524 12.78520 31934 ft 375 kts 283°
2026-05-08 07:13 53.03126 12.74325 31590 ft 372 kts 283°
2026-05-08 07:14 53.03721 12.70161 31232 ft 369 kts 283°
2026-05-08 07:14 53.04310 12.66030 30883 ft 366 kts 283°
2026-05-08 07:14 53.04893 12.61925 30541 ft 364 kts 283°
2026-05-08 07:14 53.05471 12.57851 30192 ft 361 kts 283°
2026-05-08 07:15 53.06044 12.53799 29796 ft 358 kts 283°
2026-05-08 07:15 53.06609 12.49793 29447 ft 354 kts 283°
2026-05-08 07:15 53.07168 12.45823 29101 ft 351 kts 283°
2026-05-08 07:15 53.07711 12.41947 28745 ft 347 kts 283°
2026-05-08 07:16 53.08256 12.38055 28393 ft 344 kts 282°
2026-05-08 07:16 53.08795 12.34194 28048 ft 341 kts 282°
2026-05-08 07:16 53.09328 12.30369 27701 ft 338 kts 282°
2026-05-08 07:16 53.09855 12.26568 27360 ft 336 kts 282°
2026-05-08 07:17 53.10378 12.22797 27009 ft 334 kts 282°
2026-05-08 07:17 53.10896 12.19045 26667 ft 331 kts 282°
2026-05-08 07:17 53.11410 12.15320 26342 ft 329 kts 282°
2026-05-08 07:17 53.11919 12.11613 26012 ft 327 kts 282°
2026-05-08 07:18 53.12424 12.07934 25690 ft 326 kts 282°
2026-05-08 07:18 53.12926 12.04263 25360 ft 324 kts 282°
2026-05-08 07:18 53.13424 12.00612 25034 ft 323 kts 282°
2026-05-08 07:18 53.13919 11.96978 24704 ft 321 kts 282°
2026-05-08 07:19 53.14411 11.93355 24391 ft 320 kts 282°
2026-05-08 07:19 53.14900 11.89743 24068 ft 321 kts 282°
2026-05-08 07:19 53.15393 11.86092 23738 ft 326 kts 282°
2026-05-08 07:19 53.15893 11.82381 23361 ft 331 kts 282°
2026-05-08 07:20 53.16398 11.78629 22984 ft 332 kts 282°
2026-05-08 07:20 53.16902 11.74869 22625 ft 332 kts 282°
2026-05-08 07:20 53.17402 11.71129 22298 ft 330 kts 282°
2026-05-08 07:20 53.17900 11.67397 21950 ft 329 kts 281°
2026-05-08 07:21 53.18395 11.63679 21624 ft 328 kts 282°
2026-05-08 07:21 53.18888 11.59967 21279 ft 328 kts 281°
2026-05-08 07:21 53.19378 11.56264 20950 ft 327 kts 282°
2026-05-08 07:21 53.19867 11.52560 20608 ft 327 kts 282°
2026-05-08 07:22 53.20353 11.48862 20277 ft 327 kts 282°
2026-05-08 07:22 53.20839 11.45166 19954 ft 326 kts 282°
2026-05-08 07:22 53.21323 11.41468 19618 ft 325 kts 281°
2026-05-08 07:22 53.21804 11.37795 19292 ft 324 kts 281°
2026-05-08 07:23 53.22284 11.34109 18983 ft 329 kts 281°
2026-05-08 07:23 53.22771 11.30362 18649 ft 340 kts 281°
2026-05-08 07:23 53.23275 11.26472 18266 ft 346 kts 282°
2026-05-08 07:23 53.23783 11.22542 17863 ft 346 kts 281°
2026-05-08 07:24 53.24287 11.18630 17496 ft 343 kts 282°
2026-05-08 07:24 53.24789 11.14735 17144 ft 342 kts 282°
2026-05-08 07:24 53.25285 11.10861 16786 ft 341 kts 282°
2026-05-08 07:24 53.25780 11.06995 16447 ft 339 kts 282°
2026-05-08 07:25 53.26271 11.03148 16093 ft 338 kts 282°
2026-05-08 07:25 53.26757 10.99321 15746 ft 337 kts 282°
2026-05-08 07:25 53.27722 10.91700 15068 ft 334 kts 282°
2026-05-08 07:26 53.28200 10.87915 14723 ft 333 kts 282°
2026-05-08 07:26 53.28674 10.84141 14388 ft 331 kts 282°
2026-05-08 07:26 53.29147 10.80372 14053 ft 331 kts 282°
2026-05-08 07:26 53.29618 10.76613 13681 ft 330 kts 282°
2026-05-08 07:27 53.30085 10.72870 13321 ft 328 kts 282°
2026-05-08 07:27 53.30546 10.69163 12975 ft 324 kts 282°
2026-05-08 07:27 53.31002 10.65491 12638 ft 320 kts 282°
2026-05-08 07:27 53.31450 10.61871 12310 ft 317 kts 282°
2026-05-08 07:28 53.31893 10.58283 11988 ft 313 kts 282°
2026-05-08 07:28 53.32330 10.54728 11656 ft 310 kts 282°
2026-05-08 07:28 53.32762 10.51209 11357 ft 308 kts 282°
2026-05-08 07:28 53.33194 10.47687 10882 ft 311 kts 282°
2026-05-08 07:29 53.33626 10.44149 10518 ft 310 kts 281°
2026-05-08 07:29 53.34055 10.40627 10198 ft 308 kts 281°
2026-05-08 07:29 53.34480 10.37125 9896 ft 305 kts 282°
2026-05-08 07:29 53.34893 10.33716 9722 ft 297 kts 282°
2026-05-08 07:30 53.35309 10.30284 9280 ft 300 kts 281°
2026-05-08 07:30 53.35715 10.26903 8917 ft 301 kts 282°
2026-05-08 07:30 53.36127 10.23479 8577 ft 300 kts 282°
2026-05-08 07:30 53.36536 10.20070 8251 ft 298 kts 282°
2026-05-08 07:31 53.36942 10.16674 7946 ft 296 kts 282°
2026-05-08 07:31 53.37346 10.13300 7640 ft 294 kts 282°
2026-05-08 07:31 53.37745 10.09947 7334 ft 294 kts 282°
2026-05-08 07:31 53.38144 10.06601 7012 ft 292 kts 282°
2026-05-08 07:32 53.38537 10.03269 6699 ft 291 kts 282°
2026-05-08 07:32 53.38927 9.99954 6411 ft 290 kts 282°
2026-05-08 07:32 53.39317 9.96647 6092 ft 289 kts 282°
2026-05-08 07:32 53.39705 9.93356 5774 ft 287 kts 282°
2026-05-08 07:33 53.40091 9.90083 5496 ft 286 kts 282°
2026-05-08 07:33 53.40472 9.86849 5356 ft 279 kts 282°
2026-05-08 07:33 53.40841 9.83696 5221 ft 272 kts 282°
2026-05-08 07:33 53.41194 9.80635 5127 ft 264 kts 282°
2026-05-08 07:34 53.41686 9.77735 4994 ft 256 kts 303°
2026-05-08 07:34 53.42836 9.75542 4775 ft 248 kts 323°
2026-05-08 07:34 53.44169 9.73701 4529 ft 249 kts 324°
2026-05-08 07:34 53.45505 9.71873 4289 ft 245 kts 326°
2026-05-08 07:35 53.46989 9.70711 4043 ft 229 kts 358°
2026-05-08 07:35 53.48514 9.70996 3826 ft 217 kts 25°
2026-05-08 07:35 53.49772 9.72204 3607 ft 203 kts 46°
2026-05-08 07:35 53.50710 9.73898 3392 ft 195 kts 53°
2026-05-08 07:36 53.51570 9.75627 3160 ft 190 kts 54°
2026-05-08 07:36 53.52398 9.77311 2930 ft 184 kts 54°
2026-05-08 07:36 53.53200 9.78943 2694 ft 179 kts 54°
2026-05-08 07:36 53.53993 9.80542 2446 ft 176 kts 54°
2026-05-08 07:37 53.54768 9.82102 2224 ft 172 kts 54°
2026-05-08 07:37 53.55523 9.83630 1971 ft 168 kts 56°
2026-05-08 07:37 53.56250 9.85104 1756 ft 164 kts 55°
2026-05-08 07:37 53.56967 9.86555 1552 ft 159 kts 54°
2026-05-08 07:38 53.57650 9.87926 1379 ft 146 kts 54°
2026-05-08 07:38 53.58269 9.89181 1172 ft 135 kts 54°
2026-05-08 07:38 53.58872 9.90400 1012 ft 138 kts 54°
2026-05-08 07:38 53.59486 9.91643 856 ft 138 kts 53°
2026-05-08 07:39 53.60094 9.92899 627 ft 137 kts 53°
2026-05-08 07:39 53.60711 9.94126 465 ft 138 kts 54°
2026-05-08 07:39 53.61332 9.95386 308 ft 144 kts 52°
2026-05-08 07:39 53.61986 9.96690 90 ft 145 kts 53°
2026-05-08 07:40 53.62587 9.97914 47 ft 118 kts 50°
2026-05-08 07:40 53.63003 9.98756 48 ft 47 kts 50°
2026-05-08 07:40 53.63095 9.99066 50 ft 23 kts 84°
2026-05-08 07:40 53.63090 9.99175 49 ft 0 kts 95°
2026-05-08 07:41 53.63090 9.99179 49 ft 2 kts 95°
2026-05-08 07:41 53.63086 9.99244 49 ft 9 kts 95°
2026-05-08 07:41 53.63087 9.99348 49 ft 5 kts 76°
2026-05-08 07:42 53.63087 9.99350 49 ft 0 kts 74°
2026-05-08 07:42 53.63088 9.99356 49 ft 4 kts 74°
2026-05-08 07:42 53.63136 9.99495 49 ft 22 kts 55°
2026-05-08 07:43 53.63221 9.99670 49 ft 10 kts 57°
2026-05-08 07:43 53.63209 9.99776 49 ft 10 kts 141°
2026-05-08 07:43 53.63147 9.99827 49 ft 10 kts 154°
2026-05-08 07:43 53.63088 9.99879 49 ft 9 kts 153°
2026-05-08 07:44 53.63024 9.99934 49 ft 11 kts 153°
2026-05-08 07:44 53.62950 9.99995 49 ft 12 kts 154°
2026-05-08 07:44 53.62876 10.00048 47 ft 12 kts 160°
2026-05-08 07:44 53.62805 10.00105 49 ft 10 kts 153°
2026-05-08 07:45 53.62781 10.00140 49 ft 3 kts 101°
2026-05-08 07:45 53.62788 10.00178 49 ft 3 kts 66°
2026-05-08 07:45 53.62798 10.00213 49 ft 3 kts 63°
2026-05-08 07:45 53.62805 10.00236 48 ft 2 kts 63°
2026-05-08 07:46 53.62806 10.00239 49 ft 0 kts 63°